カタログに戻る

SUPERVIEW NEO-2 06

運用中科学SSO
NORAD 68378·PAYLOAD·🇨🇳 China

打ち上げ Mar 25, 2026 から Taiyuan Satellite Launch Center

Loading…

次のパス (今後24時間)

TLE

最新Source: Space-Track

元期: Sep 14, 2026, 12:00 UTC

1 68378U 26062B   26257.50018860  .00000776  00000-0  39502-4 0  9991
2 68378  97.4391 263.5431 0001401 110.8243 249.3142 15.19722353 26210

AllMySatでSUPERVIEW NEO-2 06をリアルタイム追跡

Download on the App Store